When you browse on this site, cookies collect data to enhance your experience and personalize the content and advertising you see.
Visit our Privacy Policy to learn more. By continuing to use the site, you agree to this use of cookies and data.
  • în România
  • Lista ţărilor
  • Pe 7 zile
  • Temperatura apei
  • Meteo pe hartă
  • Widget-uri
  • user-avatar
    Intrare

    Meteo pe oră la Gabú

    Astăzi, 14 Noiembrie, Joi

    Timp Temperatura Precipitaţii Vânt Presiune Umiditate
    00:00 +27°C° 0 mm 1 m/s 751 mmHg 75%
    01:00 +26°C° 0 mm 1 m/s 751 mmHg 79%
    02:00 +26°C° 0 mm 1 m/s 751 mmHg 83%
    03:00 +25°C° 0.1 mm 1 m/s 751 mmHg 84%
    04:00 +25°C° 0.1 mm 1 m/s 751 mmHg 85%
    05:00 +25°C° 0.1 mm 1 m/s 751 mmHg 85%
    06:00 +26°C° 0 mm 1 m/s 751 mmHg 78%
    07:00 +28°C° 0 mm 1 m/s 752 mmHg 71%
    08:00 +29°C° 0 mm 1 m/s 752 mmHg 63%
    09:00 +32°C° 0 mm 1 m/s 752 mmHg 54%
    10:00 +34°C° 0 mm 1 m/s 752 mmHg 46%
    11:00 +37°C° 0 mm 1 m/s 751 mmHg 37%
    12:00 +39°C° 0 mm 1 m/s 750 mmHg 33%
    13:00 +40°C° 0 mm 1 m/s 750 mmHg 29%
    14:00 +41°C° 0 mm 1 m/s 749 mmHg 25%
    15:00 +39°C° 0 mm 1 m/s 749 mmHg 29%
    16:00 +34°C° 0 mm 0 m/s 749 mmHg 32%
    17:00 +32°C° 0 mm 0 m/s 748 mmHg 35%
    18:00 +33°C° 0 mm 1 m/s 749 mmHg 38%
    19:00 +31°C° 0 mm 1 m/s 750 mmHg 41%
    20:00 +30°C° 0 mm 1 m/s 751 mmHg 44%
    21:00 +29°C° 0 mm 1 m/s 751 mmHg 54%
    22:00 +28°C° 0 mm 2 m/s 751 mmHg 63%
    23:00 +27°C° 0 mm 2 m/s 751 mmHg 73%

    Mâine, 15 Noiembrie, Vineri

    Timp Temperatura Precipitaţii Vânt Presiune Umiditate
    00:00 +26°C° 0 mm 2 m/s 751 mmHg 73%
    01:00 +26°C° 0 mm 2 m/s 751 mmHg 74%
    02:00 +25°C° 0 mm 1 m/s 751 mmHg 74%
    03:00 +25°C° 0 mm 1 m/s 751 mmHg 74%
    04:00 +24°C° 0 mm 1 m/s 750 mmHg 74%
    05:00 +22°C° 0 mm 0 m/s 750 mmHg 73%
    06:00 +25°C° 0 mm 1 m/s 751 mmHg 67%
    07:00 +27°C° 0 mm 1 m/s 751 mmHg 60%
    08:00 +29°C° 0 mm 1 m/s 752 mmHg 53%
    09:00 +31°C° 0 mm 1 m/s 752 mmHg 45%
    10:00 +34°C° 0 mm 1 m/s 751 mmHg 37%
    11:00 +37°C° 0 mm 1 m/s 751 mmHg 29%
    12:00 +37°C° 0 mm 1 m/s 750 mmHg 27%
    13:00 +39°C° 0 mm 1 m/s 749 mmHg 26%
    14:00 +40°C° 0 mm 1 m/s 748 mmHg 25%
    15:00 +37°C° 0 mm 1 m/s 748 mmHg 29%
    16:00 +35°C° 0 mm 1 m/s 748 mmHg 32%
    17:00 +33°C° 0 mm 1 m/s 748 mmHg 36%
    18:00 +32°C° 0 mm 1 m/s 749 mmHg 38%
    19:00 +31°C° 0 mm 1 m/s 750 mmHg 40%
    20:00 +30°C° 0 mm 1 m/s 750 mmHg 41%
    21:00 +29°C° 0 mm 1 m/s 750 mmHg 49%
    22:00 +27°C° 0 mm 1 m/s 750 mmHg 56%
    23:00 +26°C° 0 mm 2 m/s 751 mmHg 64%

    Poimâine, 16 Noiembrie, Sâmbătă

    Timp Temperatura Precipitaţii Vânt Presiune Umiditate
    00:00 +26°C° 0 mm 1 m/s 750 mmHg 67%
    01:00 +25°C° 0 mm 1 m/s 750 mmHg 70%
    02:00 +25°C° 0 mm 1 m/s 750 mmHg 73%
    03:00 +24°C° 0 mm 1 m/s 750 mmHg 72%
    04:00 +22°C° 0 mm 0 m/s 750 mmHg 72%
    05:00 +21°C° 0 mm 0 m/s 750 mmHg 72%
    06:00 +23°C° 0 mm 0 m/s 750 mmHg 66%
    07:00 +25°C° 0 mm 0 m/s 751 mmHg 59%
    08:00 +29°C° 0 mm 1 m/s 751 mmHg 52%
    09:00 +31°C° 0 mm 1 m/s 751 mmHg 45%
    10:00 +34°C° 0 mm 1 m/s 751 mmHg 37%
    11:00 +37°C° 0 mm 1 m/s 750 mmHg 30%
    12:00 +39°C° 0 mm 1 m/s 750 mmHg 28%
    13:00 +39°C° 0 mm 1 m/s 749 mmHg 27%
    14:00 +40°C° 0 mm 1 m/s 748 mmHg 26%
    15:00 +37°C° 0 mm 1 m/s 748 mmHg 31%
    16:00 +35°C° 0 mm 1 m/s 748 mmHg 35%
    17:00 +33°C° 0 mm 1 m/s 748 mmHg 40%
    18:00 +32°C° 0 mm 2 m/s 749 mmHg 43%
    19:00 +31°C° 0 mm 2 m/s 750 mmHg 47%
    20:00 +29°C° 0 mm 2 m/s 751 mmHg 51%
    21:00 +29°C° 0 mm 2 m/s 751 mmHg 54%
    22:00 +28°C° 0 mm 2 m/s 751 mmHg 58%
    23:00 +27°C° 0 mm 3 m/s 751 mmHg 61%

    17 Noiembrie, Duminică

    Timp Temperatura Precipitaţii Vânt Presiune Umiditate
    00:00 +27°C° 0 mm 2 m/s 751 mmHg 65%
    01:00 +26°C° 0 mm 2 m/s 751 mmHg 69%
    02:00 +26°C° 0 mm 1 m/s 750 mmHg 73%
    03:00 +25°C° 0 mm 1 m/s 750 mmHg 76%
    04:00 +25°C° 0 mm 1 m/s 750 mmHg 78%
    05:00 +25°C° 0 mm 1 m/s 751 mmHg 80%
    06:00 +26°C° 0 mm 1 m/s 751 mmHg 74%
    07:00 +27°C° 0 mm 1 m/s 751 mmHg 68%
    08:00 +29°C° 0 mm 1 m/s 752 mmHg 62%
    09:00 +31°C° 0 mm 1 m/s 751 mmHg 53%
    10:00 +34°C° 0 mm 1 m/s 751 mmHg 43%
    11:00 +36°C° 0 mm 1 m/s 751 mmHg 34%
    12:00 +39°C° 0 mm 1 m/s 750 mmHg 32%
    13:00 +40°C° 0 mm 1 m/s 749 mmHg 29%
    14:00 +38°C° 0 mm 0 m/s 749 mmHg 27%
    15:00 +36°C° 0 mm 0 m/s 749 mmHg 31%
    16:00 +36°C° 0 mm 1 m/s 749 mmHg 34%
    17:00 +34°C° 0 mm 1 m/s 749 mmHg 38%
    18:00 +33°C° 0 mm 1 m/s 749 mmHg 40%
    19:00 +32°C° 0 mm 1 m/s 750 mmHg 42%
    20:00 +30°C° 0 mm 1 m/s 750 mmHg 43%
    21:00 +30°C° 0 mm 1 m/s 750 mmHg 46%
    22:00 +29°C° 0 mm 1 m/s 751 mmHg 48%
    23:00 +28°C° 0 mm 1 m/s 751 mmHg 50%

    18 Noiembrie, Luni

    Timp Temperatura Precipitaţii Vânt Presiune Umiditate
    00:00 +27°C° 0 mm 1 m/s 750 mmHg 56%
    01:00 +27°C° 0 mm 1 m/s 750 mmHg 61%
    02:00 +26°C° 0 mm 1 m/s 750 mmHg 67%
    03:00 +25°C° 0 mm 1 m/s 750 mmHg 70%
    04:00 +25°C° 0 mm 1 m/s 750 mmHg 73%
    05:00 +25°C° 0 mm 1 m/s 750 mmHg 76%
    06:00 +26°C° 0 mm 1 m/s 750 mmHg 69%
    07:00 +28°C° 0 mm 1 m/s 751 mmHg 62%
    08:00 +28°C° 0 mm 0 m/s 751 mmHg 55%
    09:00 +31°C° 0 mm 0 m/s 751 mmHg 46%
    10:00 +34°C° 0 mm 0 m/s 751 mmHg 38%
    11:00 +38°C° 0 mm 0 m/s 750 mmHg 29%
    12:00 +38°C° 0 mm 0 m/s 750 mmHg 28%
    13:00 +38°C° 0 mm 0 m/s 749 mmHg 26%
    14:00 +39°C° 0 mm 0 m/s 748 mmHg 25%
    15:00 +37°C° 0 mm 0 m/s 748 mmHg 29%
    16:00 +37°C° 0 mm 1 m/s 748 mmHg 32%
    17:00 +35°C° 0 mm 1 m/s 748 mmHg 36%
    18:00 +33°C° 0 mm 1 m/s 749 mmHg 38%
    19:00 +32°C° 0 mm 1 m/s 750 mmHg 39%
    20:00 +31°C° 0 mm 1 m/s 750 mmHg 41%
    21:00 +30°C° 0 mm 1 m/s 750 mmHg 46%
    22:00 +29°C° 0 mm 2 m/s 750 mmHg 51%
    23:00 +28°C° 0 mm 2 m/s 751 mmHg 57%

    19 Noiembrie, Marţi

    Timp Temperatura Precipitaţii Vânt Presiune Umiditate
    00:00 +27°C° 0 mm 2 m/s 750 mmHg 62%
    01:00 +26°C° 0 mm 1 m/s 750 mmHg 68%
    02:00 +25°C° 0 mm 1 m/s 750 mmHg 74%
    03:00 +25°C° 0 mm 1 m/s 750 mmHg 77%
    04:00 +25°C° 0 mm 1 m/s 750 mmHg 80%
    05:00 +24°C° 0 mm 1 m/s 750 mmHg 84%
    06:00 +26°C° 0 mm 1 m/s 750 mmHg 75%
    07:00 +28°C° 0 mm 1 m/s 751 mmHg 67%
    08:00 +29°C° 0 mm 1 m/s 751 mmHg 59%
    09:00 +32°C° 0 mm 1 m/s 751 mmHg 49%
    10:00 +34°C° 0 mm 0 m/s 751 mmHg 39%
    11:00 +37°C° 0 mm 0 m/s 751 mmHg 28%
    12:00 +37°C° 0 mm 0 m/s 750 mmHg 27%
    13:00 +38°C° 0 mm 0 m/s 749 mmHg 25%
    14:00 +38°C° 0 mm 0 m/s 749 mmHg 23%
    15:00 +36°C° 0 mm 0 m/s 749 mmHg 27%
    16:00 +34°C° 0 mm 0 m/s 749 mmHg 30%
    17:00 +34°C° 0 mm 1 m/s 749 mmHg 34%
    18:00 +33°C° 0 mm 1 m/s 749 mmHg 35%
    19:00 +32°C° 0 mm 1 m/s 750 mmHg 37%
    20:00 +31°C° 0 mm 1 m/s 750 mmHg 38%
    21:00 +30°C° 0 mm 1 m/s 751 mmHg 44%
    22:00 +28°C° 0 mm 1 m/s 751 mmHg 50%
    23:00 +27°C° 0 mm 1 m/s 751 mmHg 56%
    Arată mai mult